Printer-friendly version

IAU Minor Planet Center

Minor Planet Center

MPEC 2006-C44 : 2006 CK10

The following Minor Planet Electronic Circular may be linked-to from your own Web pages, but must not otherwise be redistributed electronically.


Read MPEC 2006-C43 Read MPEC 2006-C45


M.P.E.C. 2006-C44                                Issued 2006 Feb. 8, 12:41 UT

     The Minor Planet Electronic Circulars contain information on unusual
         minor planets and routine data on comets.  They are published
   on behalf of Commission 20 of the International Astronomical Union by the
          Minor Planet Center, Smithsonian Astrophysical Observatory,
                          Cambridge, MA 02138, U.S.A.

                  Supported in part by the Brinson Foundation
                  Supported in part by the TABASGO Foundation
             Prepared using the Tamkin Foundation Computer Network

                              MPC@CFA.HARVARD.EDU
          URL http://cfa-www.harvard.edu/iau/mpc.html  ISSN 1523-6714

                                   2006 CK10

Observations:
     K06C10K* C2006 02 04.43262 14 16 00.15 +35 00 10.5          19.0 V EC044703
     K06C10K  C2006 02 04.44130 14 15 59.65 +35 00 30.4          18.9 V EC044703
     K06C10K  C2006 02 04.44998 14 15 59.18 +35 00 51.6          19.0 V EC044703
     K06C10K  C2006 02 04.45862 14 15 58.78 +35 01 11.3          19.2 V EC044703
     K06C10K  C2006 02 04.46807 14 15 58.28 +35 01 34.3          18.9 V EC044703
     K06C10K  C2006 02 04.47020 14 15 58.21 +35 01 39.6          18.8 V EC044703
     K06C10K  C2006 02 04.47235 14 15 58.06 +35 01 44.5          18.8 V EC044703
     K06C10K  C2006 02 04.47452 14 15 57.88 +35 01 49.6          19.0 V EC044703
     K06C10K  C2006 02 04.55651 14 15 53.60 +35 05 02.9          18.8 V EC044703
     K06C10K  C2006 02 04.55755 14 15 53.36 +35 05 05.4          18.6 V EC044703
     K06C10K  C2006 02 04.95187 14 15 32.79 +35 20 41.7          18.5   EC044147
     K06C10K  C2006 02 04.95549 14 15 32.55 +35 20 50.6          18.6   EC044147
     K06C10K  C2006 02 04.96739 14 15 32.02 +35 21 19.0          18.6   EC044147
     K06C10K  C2006 02 05.01579 14 15 29.31 +35 23 17.2                 EC044204
     K06C10K  C2006 02 05.02842 14 15 28.61 +35 23 47.5          19.2 R EC044204
     K06C10K  C2006 02 05.06132 14 15 26.78 +35 25 05.4                 EC044595
     K06C10K  C2006 02 05.09743 14 15 24.80 +35 26 30.7          20.2 V EC044595
     K06C10K  C2006 02 06.38008 14 14 11.26 +36 18 33.3          18.8 R EC044854
     K06C10K  C2006 02 06.38200 14 14 11.15 +36 18 38.2          18.8 R EC044854
     K06C10K  C2006 02 06.38679 14 14 10.89 +36 18 50.2          19.0 R EC044854
     K06C10K  C2006 02 06.39254 14 14 10.49 +36 19 04.4          19.1 R EC044854
     K06C10K  C2006 02 06.39350 14 14 10.39 +36 19 06.4          18.9 R EC044854
     K06C10K  C2006 02 06.41742 14 14 08.93 +36 20 06.7          19.5   EC044704
     K06C10K  C2006 02 06.43014 14 14 08.07 +36 20 36.5          19.7   EC044704
     K06C10K  C2006 02 06.44288 14 14 07.38 +36 21 09.4          19.6   EC044704
     K06C10K  C2006 02 06.45583 14 14 06.56 +36 21 39.5          19.6   EC044704
     K06C10K  C2006 02 06.45670 14 14 06.50 +36 21 43.0          17.6 V EC044G96
     K06C10K  C2006 02 06.46630 14 14 05.89 +36 22 05.7          17.7 V EC044G96
     K06C10K  C2006 02 06.46867 14 14 05.72 +36 22 13.7          19.1   EC044704
     K06C10K  C2006 02 06.47593 14 14 05.28 +36 22 30.5          19.2 V EC044G96
     K06C10K  C2006 02 06.48558 14 14 04.70 +36 22 54.2          19.1 V EC044G96
     K06C10K  C2006 02 07.08615 14 13 27.46 +36 47 46.5          18.8 V EC044595
     K06C10K  C2006 02 07.10559 14 13 26.12 +36 48 35.6                 EC044595
     K06C10K  C2006 02 07.37591 14 13 08.92 +36 59 54.4          19.4 R EC044701
     K06C10K  C2006 02 07.39017 14 13 07.91 +37 00 29.7          20.1 R EC044701
     K06C10K  C2006 02 07.40454 14 13 07.02 +37 01 06.8          19.1 R EC044701
     K06C10K  C2006 02 07.41289 14 13 06.52 +37 01 27.7          19.2   EC044704
     K06C10K  C2006 02 07.41319 14 13 06.41 +37 01 29.1          19.3   EC044704
     K06C10K  C2006 02 07.42594 14 13 05.61 +37 02 00.4          19.2   EC044704
     K06C10K  C2006 02 07.42624 14 13 05.61 +37 02 01.4          19.3   EC044704
     K06C10K  C2006 02 07.43858 14 13 04.75 +37 02 32.3          19.7   EC044704
     K06C10K  C2006 02 07.43888 14 13 04.72 +37 02 33.3          19.3   EC044704
     K06C10K  C2006 02 07.45117 14 13 03.91 +37 03 04.1          19.6   EC044704
     K06C10K  C2006 02 07.45146 14 13 03.87 +37 03 05.6          19.6   EC044704
     K06C10K  C2006 02 07.46401 14 13 03.07 +37 03 36.9          19.2   EC044704
     K06C10K  C2006 02 07.46430 14 13 03.06 +37 03 37.7          19.6   EC044704
     K06C10K  C2006 02 08.18782 14 12 14.32 +37 34 13.4                 EC044J95
     K06C10K  C2006 02 08.19255 14 12 13.94 +37 34 25.9                 EC044J95
     K06C10K  C2006 02 08.19464 14 12 13.81 +37 34 31.3          19.0 R EC044J95

Observer details:
147 Osservatorio Astronomico di Suno.  Observers D. Crespi, S. Foglia,
    G. Galli, S. Minuto.  Measurers S. Foglia, G. Galli.  0.40-m f/4 reflector
    + CCD.
204 Schiaparelli Observatory.  Observers L. Buzzi, F. Luppi.  Measurer
    L. Buzzi.  0.60-m f/4.64 reflector + CCD.
595 Farra d'Isonzo.  Observers M. Spolaor, E. Pettarin, G. Lombardi.
    Measurers M. Spolaor, E. Pettarin.  0.40-m f/4.5 reflector + CCD.
701 Junk Bond Observatory, Sierra Vista.  Observer D. Healy.  0.81-m f/4.4
    Ritchey-Chretien + CCD.
703 Catalina Sky Survey.  Observer E. J. Christensen.  Measurers E. C. Beshore,
    E. J. Christensen, G. J. Garradd, A. D. Grauer, R. E. Hill, R. A. Kowalski,
    S. M. Larson, R. H. McNaught.  0.68-m Schmidt + CCD.
704 Lincoln Laboratory ETS, New Mexico.  Observers M. Bezpalko, L. Manguso,
    D. Torres, R. Kracke, M. Blythe, H. Love.  Measurers J. Stuart, J. Kommers.
    1.0-m f/2.15 reflector + CCD.
854 Sabino Canyon Observatory, Tucson.  Observer J. E. McGaha.  0.36-m f/10.0
    Schmidt-Cassegrain + CCD.
G96 Mt. Lemmon Survey.  Observer R. A. Kowalski.  Measurers E. C. Beshore,
    E. J. Christensen, G. J. Garradd, A. D. Grauer, R. E. Hill, R. A. Kowalski,
    S. M. Larson, R. H. McNaught.  1.5-m reflector + CCD.
J95 Great Shefford.  Observer P. Birtwhistle.  0.40-m f/6.0 Schmidt-Cassegrain
    + CCD.

Orbital elements:
2006 CK10
Epoch 2006 Mar. 6.0 TT = JDT 2453800.5                  MPC
M 359.19769              (2000.0)            P               Q
n   0.00650781     Peri.  145.50620     -0.05109408     +0.85064891
a  28.4127089      Node   243.91998     +0.73361104     +0.38747182
e   0.9392154      Incl.  144.36911     +0.67764610     -0.35533369
P 151.45           H   14.4           G   0.15           U   6
Residuals in seconds of arc
060204 703  0.2-  0.8+    060206 854  0.2-  0.3+    060207 701  0.8-  0.4-
060204 703  0.7-  0.1+    060206 854  0.1-  0.4+    060207 701  0.0   0.4+
060204 703  0.7-  0.7+    060206 854  0.3+  0.6+    060207 704  0.9+  0.3+
060204 703  0.0   0.1-    060206 854  0.2-  0.5+    060207 704  0.1-  0.9+
060204 703  0.1+  0.5+    060206 854  0.7-  0.1+    060207 704  0.5+  0.0
060204 703  0.7+  0.7+    060206 704  0.2-  1.2+    060207 704  0.7+  0.3+
060204 703  0.2+  0.5+    060206 704  1.1-  0.5-    060207 704  0.3+  0.0
060204 703  0.5-  0.5+    060206 704  0.2+  0.9+    060207 704  0.2+  0.2+
060204 703  1.2+  0.5-    060206 704  0.0   1.0-    060207 704  0.4+  0.0
060204 703  1.0-  0.5-    060206 G96  0.3-  0.3+    060207 704  0.2+  0.8+
060204 147  0.2-  0.7-    060206 G96  0.4-  0.8-    060207 704  0.7+  0.4+
060204 147  0.7-  0.5-    060206 704  0.4-  1.4+    060207 704  0.8+  0.4+
060204 147  0.7+  0.7-    060206 G96  0.5-  0.2+    060208 J95  0.1+  0.2-
060205 204  0.1-  1.2+    060206 G96  0.2-  0.0     060208 J95  0.5-  0.1+
060205 204  0.2-  1.1+    060207 595  0.2+  0.2+    060208 J95  0.3-  0.2+
060205 595  0.2-  0.2-    060207 595  0.7-  0.5+
060205 595  0.2+  1.8-    060207 701  0.0   0.4+

Ephemeris:
2006 CK10                a,e,i = 28.41, 0.94, 144                q = 1.7271
Date    TT    R. A. (2000) Decl.     Delta      r     Elong.  Phase     V
2006 02 04    14 16.37   +34 43.2    2.028    2.540   110.0    21.4    19.0
2006 02 14    14 03.96   +41 56.0    1.831    2.458   118.3    20.7    18.7
2006 02 24    13 39.44   +50 19.0    1.684    2.378   123.4    20.3    18.4
2006 03 06    12 53.26   +58 49.2    1.602    2.299   123.1    21.2    18.3
2006 03 16    11 33.52   +65 11.6    1.591    2.223   116.7    23.6    18.3
2006 03 26    09 49.99   +66 55.6    1.647    2.151   106.2    26.4    18.3
2006 04 05    08 25.17   +64 17.0    1.754    2.081    94.2    28.6    18.5
2006 04 15    07 34.35   +59 51.0    1.894    2.016    82.0    29.5    18.6
2006 04 25    07 06.33   +55 19.6    2.049    1.956    70.4    29.0    18.7

Timothy B. Spahr             (C) Copyright 2006 MPC           M.P.E.C. 2006-C44

Read MPEC 2006-C43 Read MPEC 2006-C45


Our Web policy. Index to the CBAT/MPC/ICQ pages.


Valid HTML 4.01!